Regional Weather Roundup
Issued by NWS

Home | Current Version | Previous Version | Text Only | Print | Product List | Glossary Off
Versions: 1 2 3 4 5 6 7 8 9 10 11 12 13 14 15 16 17 18 19 20 21 22 23 24 25 26 27

000
ASUS45 KBOU 300810
RWRCO

WEATHER ROUNDUP FOR COLORADO
NATIONAL WEATHER SERVICE DENVER/BOULDER CO
200 AM MDT FRI SEP 30 2016

NOTE: "FAIR" INDICATES FEW OR NO CLOUDS BELOW 12000 FEET WITH NO
SIGNIFICANT WEATHER AND/OR OBSTRUCTIONS TO VISIBILITY.

COZ001>005-013-030-031-300900-
...NORTHWEST COLORADO...

CITY           SKY/WX    TMP DP  RH WIND       PRES   REMARKS
CRAIG          LGT RAIN  53  51  93 NW5       30.37R
HAYDEN         FAIR      52  46  82 CALM      30.37F
MEEKER         CLOUDY    55  50  83 CALM      30.37S
MOUNT WERNER   NOT AVBL
STEAMBOAT SPGS CLOUDY    50  46  88 CALM      30.38S
WALDEN           N/A     45  36  70 SE5       30.43F
$$

COZ006>008-011-300900-
...WEST CENTRAL VALLEYS...

CITY           SKY/WX    TMP DP  RH WIND       PRES   REMARKS
GRAND JUNCTION LGT RAIN  58  55  90 SE8       30.33R
MONTROSE       LGT RAIN  55  52  89 SE3       30.39F
EAGLE          CLOUDY    52  43  71 E7        30.40S
RIFLE          CLOUDY    57  55  93 CALM      30.35S
DELTA          CLOUDY    59  56  92 CALM      30.36S
NUCLA          CLOUDY    54  52  94 CALM      30.42F
$$

COZ017>023-064>068-300900-
...SOUTHWEST COLORADO...

CITY           SKY/WX    TMP DP  RH WIND       PRES   REMARKS
DURANGO        CLOUDY    52  50  93 CALM      30.42F
CORTEZ         CLOUDY    53  51  93 NE3       30.38F
PAGOSA SPRINGS CLOUDY    53  45  75 CALM      30.47F
TELLURIDE      DRIZZLE   47  47 100 CALM      30.53S
WOLF CREEK PAS CLOUDY    36  36 100 MISG      30.68F
$$

COZ009-010-012-014-032>034-037-058>063-300900-
...CENTRAL COLORADO...

CITY           SKY/WX    TMP DP  RH WIND       PRES   REMARKS
ASPEN          CLOUDY    50  43  77 CALM      30.43F
BUENA VISTA    CLOUDY    50  33  51 CALM      30.42S
COPPER MTN     DRIZZLE   45  32  61 S10       30.64S
BERTHOUD PASS  CLOUDY    34  21  60 N16       30.66S WCI  23
COTTONWOOD PAS CLOUDY    54  32  43 W6        30.52S
GUNNISON       MOCLDY    50  45  81 CALM      30.44S
KREMMLING      FAIR      46  36  66 CALM      30.42S
LEADVILLE      CLOUDY    42  30  62 NE3       30.51S
MONARCH PASS   CLOUDY    39  32  75 SW20      30.74S
SALIDA         CLOUDY    57  37  46 N3        30.46S
SUNLIGHT       LGT RAIN  43  43 100 SW14G22   30.60F
WILKERSON PASS MOCLDY    43  32  65 SW13      30.61S
$$

COZ069>075-300900-
...SAN LUIS VALLEY/SANGRE DE CRISTO MOUNTAINS...

CITY           SKY/WX    TMP DP  RH WIND       PRES   REMARKS
ALAMOSA        FAIR      48  39  71 S7        30.42F
LA VETA PASS   MOCLDY    45  34  65 MISG      30.54F
SAGUACHE       CLOUDY    52  34  50 SE6       30.44S
$$

COZ035-036-038>040-300900-
...NORTHERN COLORADO FRONT RANGE...

CITY           SKY/WX    TMP DP  RH WIND       PRES   REMARKS
DENVER INTL AP FAIR      59  39  47 W7        30.22S
DMNS CITY PARK   N/A     54  44  69 S3        30.23S
AURORA         PTCLDY    57  39  50 S5        30.24S
FRONT RANGE AP NOT AVBL
ERIE MUNI ARPT FAIR      51  39  63 CALM      30.21S
BOULDER MUN AP FAIR      59  36  41 CALM      30.21S
CENTENNIAL     FAIR      54  36  50 W6        30.25R
BROOMFIELD     FAIR      61  36  39 CALM      30.24S
FORT COLLINS   FAIR      54  39  58 N9        30.21S
LONGMONT       FAIR      53  42  66 CALM      30.23R
$$

COZ041-046-047-076>085-087-088-300900-
...PIKES PEAK/PALMER DIVIDE AND SOUTHERN FOOTHILLS...

CITY           SKY/WX    TMP DP  RH WIND       PRES   REMARKS
COLO. SPRINGS  FAIR      49  38  65 N7        30.30S
A. F. ACADEMY  FAIR      46  36  67 N7        30.30S
SCHRIEVER AFB  NOT AVBL
ELLICOTT       NOT AVBL
FALCON         FAIR      47  37  67 CALM      30.34R
FORT CARSON    FAIR      50  37  60 NW6       30.26S
LIMON          FAIR      44  39  82 SE6       30.27S
MONUMENT HILL  FAIR      46  32  57 SW7       30.33S
TRINIDAD       FAIR      61  33  35 N3        30.27S
$$

COZ042>045-048>051-090-091-300900-
...NORTHEAST COLORADO...

CITY           SKY/WX    TMP DP  RH WIND       PRES   REMARKS
GREELEY ARPT   FAIR      52  41  66 N9        30.20S
AKRON          FAIR      49  40  71 SE13      30.22F
BURLINGTON     FAIR      51  38  60 S13       30.26F
WRAY           NOT AVBL
STERLING       FAIR      52  41  66 W3        30.21S
HOLYOKE        FAIR      50  41  71 SE9       30.25F
FORT MORGAN    FAIR      49  39  69 E7        30.21S
$$

COZ086-089-092>099-300900-
...SOUTHEAST COLORADO...

CITY           SKY/WX    TMP DP  RH WIND       PRES   REMARKS
PUEBLO         FAIR      56  38  50 N9        30.20R
LA JUNTA       FAIR      57  43  59 E10       30.18F
LAMAR          FAIR      53  41  63 E9        30.20F
SPRINGFIELD      N/A     49  45  86 S12       30.26S
$$




USA.gov is the U.S. government's official web portal to all federal, state and local government web resources and services.